EW2821 Weather Reports


Display with metric or nautical units.
time (UTC)temp
F
wind
direction
speed
MPH
gust
MPH
rain 1hr
in
rain 24hr
in
rain mn
in
humidity
%
barometer
mb
20260510030051 63 221 3.0 9.0 0.00 0.36 0.25 74 1009.3
20260510024543 62 234 3.0 10.0 0.00 0.42 0.25 75 1009.3
20260510023042 62 252 2.0 9.0 0.00 0.42 0.25 76 1009.4
20260510021542 62 216 2.0 7.0 0.00 0.42 0.25 75 1009.2
20260510020041 62 218 2.0 6.0 0.00 0.42 0.25 75 1009.0
20260510014542 61 215 3.0 6.0 0.00 0.43 0.25 75 1008.8
20260510013040 62 231 2.0 4.0 0.00 0.43 0.25 73 1008.6
20260510011540 64 237 0.0 3.0 0.00 0.43 0.25 70 1008.4
20260510010039 65 239 0.0 4.0 0.00 0.43 0.25 66 1008.1
20260510004541 67 259 2.0 11.0 0.00 0.47 0.25 64 1008.0
20260510003045 67 253 3.0 13.0 0.00 0.47 0.25 62 1008.0
20260510001537 68 252 8.0 12.0 0.00 0.47 0.25 60 1007.7
20260510000042 69 253 6.0 12.0 0.00 0.47 0.25 60 1007.5
20260509234551 69 278 6.0 11.0 0.00 0.51 0.25 59 1007.5
20260509233038 69 212 5.0 14.0 0.00 0.51 0.25 56 1007.3
20260509231536 70 280 11.0 18.0 0.00 0.51 0.25 53 1007.1
20260509230039 71 259 7.0 16.0 0.00 0.51 0.25 53 1007.1
20260509224533 71 270 4.0 18.0 0.00 0.53 0.25 54 1007.0
20260509223035 71 228 10.0 18.0 0.00 0.53 0.25 53 1006.8
20260509221535 72 246 10.0 17.0 0.00 0.53 0.25 55 1006.8
20260509220032 71 278 11.0 18.0 0.00 0.53 0.25 54 1006.8
20260509214531 71 225 12.0 19.0 0.00 0.53 0.25 53 1006.8
20260509213032 72 246 9.0 20.0 0.00 0.53 0.25 56 1006.6
20260509211525 71 284 6.0 21.0 0.00 0.53 0.25 59 1006.8
20260509210023 71 269 8.0 22.0 0.00 0.53 0.25 60 1006.8
20260509204522 71 260 8.0 21.0 0.00 0.53 0.25 65 1006.8
20260509203019 70 217 9.0 24.0 0.00 0.53 0.25 65 1007.0
20260509201516 70 268 9.0 21.0 0.00 0.53 0.25 67 1007.2
20260509200016 70 201 11.0 20.0 0.00 0.53 0.25 67 1007.3
20260509194515 69 188 10.0 19.0 0.00 0.53 0.25 68 1007.4
20260509193012 69 216 11.0 19.0 0.00 0.53 0.25 68 1007.5
20260509191510 68 189 9.0 19.0 0.00 0.53 0.25 72 1007.6
20260509190019 68 190 10.0 17.0 0.00 0.53 0.25 72 1007.7
20260509184508 68 206 11.0 17.0 0.00 0.53 0.25 72 1007.6
20260509183005 67 207 10.0 19.0 0.00 0.53 0.25 73 1007.7
20260509181502 67 249 10.0 20.0 0.00 0.53 0.25 76 1007.8
20260509180100 66 234 11.0 21.0 0.00 0.53 0.25 73 1007.8
20260509174602 65 212 11.0 24.0 0.00 0.53 0.25 75 1007.8
20260509173107 65 257 5.0 17.0 0.00 0.53 0.25 76 1008.0
20260509171622 65 242 10.0 18.0 0.00 0.53 0.25 76 1008.0
20260509170055 64 226 7.0 15.0 0.00 0.53 0.25 77 1008.2
20260509164553 64 246 8.0 20.0 0.00 0.53 0.25 76 1008.2
20260509163102 64 255 9.0 16.0 0.00 0.53 0.25 76 1008.3
20260509161553 64 245 7.0 17.0 0.00 0.53 0.25 77 1008.2
20260509160047 63 210 10.0 18.0 0.00 0.53 0.25 77 1008.1
20260509154549 62 223 14.0 22.0 0.00 0.53 0.25 79 1008.0
20260509153043 62 264 9.0 13.0 0.00 0.53 0.25 80 1008.1
20260509151541 61 214 10.0 15.0 0.00 0.53 0.25 81 1008.2
20260509150041 61 237 7.0 13.0 0.00 0.53 0.25 83 1008.2
20260509144603 60 224 7.0 13.0 0.00 0.53 0.25 85 1008.0
20260509143037 59 225 9.0 13.0 0.00 0.53 0.25 86 1008.0
20260509141535 59 218 8.0 14.0 0.00 0.53 0.25 88 1008.0
20260509140023 58 207 7.0 11.0 0.00 0.53 0.25 88 1007.9
20260509134520 57 217 6.0 10.0 0.00 0.53 0.25 90 1007.7
20260509133019 57 203 7.0 11.0 0.00 0.53 0.25 91 1007.8
20260509131518 56 234 5.0 9.0 0.00 0.53 0.25 92 1007.9
20260509130009 56 203 4.0 8.0 0.00 0.53 0.25 94 1007.9
20260509124504 55 236 4.0 9.0 0.00 0.53 0.25 95 1007.9
20260509123002 54 245 4.0 9.0 0.00 0.53 0.25 95 1008.0
20260509121559 53 241 4.0 9.0 0.00 0.53 0.25 95 1008.0
20260509120107 53 216 3.0 8.0 0.00 0.53 0.25 96 1007.8
20260509114603 52 257 2.0 4.0 0.00 0.53 0.25 95 1007.7
20260509113056 52 264 1.0 3.0 0.00 0.53 0.25 95 1007.6
20260509111553 52 264 1.0 6.0 0.00 0.53 0.25 95 1007.8
20260509110052 52 259 1.0 4.0 0.00 0.53 0.25 95 1007.7
20260509104549 53 216 3.0 10.0 0.00 0.53 0.25 95 1007.6
20260509103048 53 270 5.0 11.0 0.00 0.53 0.25 95 1007.6
20260509101550 53 241 6.0 10.0 0.00 0.53 0.25 95 1007.3
20260509100054 53 201 5.0 10.0 0.00 0.53 0.25 95 1007.4
20260509094550 53 278 3.0 15.0 0.00 0.53 0.25 95 1007.5
20260509093044 53 217 3.0 7.0 0.00 0.53 0.25 95 1007.6
20260509091544 53 232 3.0 10.0 0.01 0.53 0.25 95 1007.6
20260509090043 53 218 7.0 10.0 0.01 0.53 0.25 95 1007.5
20260509084541 53 208 5.0 9.0 0.01 0.53 0.25 95 1007.6
20260509083042 53 195 5.0 8.0 0.02 0.53 0.25 95 1007.8
20260509081545 53 226 2.0 6.0 0.02 0.52 0.24 95 1007.8
20260509080041 53 213 4.0 8.0 0.06 0.52 0.24 95 1007.7
20260509074538 53 268 4.0 10.0 0.10 0.52 0.24 95 1007.9
20260509073035 53 234 7.0 14.0 0.10 0.51 0.23 95 1007.9
20260509071535 54 224 6.0 15.0 0.10 0.50 0.22 95 1008.2
20260509070031 54 220 6.0 14.0 0.06 0.46 0.18 95 1008.4
20260509064530 54 207 7.0 12.0 0.03 0.42 0.14 95 1008.6
20260509063029 53 222 6.0 12.0 0.02 0.41 0.13 95 1008.7
20260509061525 53 203 6.0 11.0 0.02 0.40 0.12 95 1008.9
20260509060028 53 209 8.0 13.0 0.01 0.39 0.11 95 1008.9
20260509054524 53 205 5.0 12.0 0.04 0.39 0.11 95 1009.0
20260509053028 53 205 6.0 15.0 0.06 0.39 0.11 94 1009.0
20260509051530 53 207 7.0 14.0 0.08 0.38 0.10 94 1009.1
20260509050025 53 213 10.0 17.0 0.10 0.38 0.10 94 1009.1
20260509044522 54 180 6.0 12.0 0.09 0.35 0.07 93 1009.1
20260509043016 54 215 8.0 17.0 0.11 0.33 0.05 93 1009.3
20260509041515 54 207 6.0 12.0 0.10 0.28 0.01 94 1009.4
20260509040015 54 179 6.0 12.0 0.11 0.28 0.28 94 1009.5
20260509034514 54 203 5.0 16.0 0.10 0.26 0.26 93 1009.7
20260509033010 54 229 5.0 17.0 0.07 0.22 0.22 93 1009.8
20260509031509 54 244 8.0 16.0 0.05 0.19 0.19 93 1009.7